• In Hungary
  • List of Countries
  • For 7 days
  • Water Temperature
  • Satellite Maps
  • Weather Map
  • News
  • Weather Widgets
  • user-avatar
    Login

    Hourly Weather Lanaken

    Today, 17 October, Tuesday

    Time Temperature Precipitation Wind Pressure Humidity
    00:00 +16°C° 0 mm 3 mps 760 mmHg 84%
    01:00 +16°C° 0 mm 2 mps 760 mmHg 86%
    02:00 +15°C° 0 mm 2 mps 760 mmHg 89%
    03:00 +15°C° 0 mm 2 mps 760 mmHg 92%
    04:00 +15°C° 0 mm 2 mps 760 mmHg 92%
    05:00 +14°C° 0 mm 2 mps 760 mmHg 93%
    06:00 +14°C° 0 mm 2 mps 760 mmHg 94%
    07:00 +15°C° 0 mm 2 mps 761 mmHg 87%
    08:00 +17°C° 0 mm 2 mps 761 mmHg 81%
    09:00 +18°C° 0 mm 2 mps 761 mmHg 75%
    10:00 +19°C° 0 mm 2 mps 761 mmHg 72%
    11:00 +21°C° 0 mm 1 mps 760 mmHg 68%
    12:00 +22°C° 0 mm 1 mps 760 mmHg 65%
    13:00 +22°C° 0 mm 1 mps 759 mmHg 65%
    14:00 +22°C° 0 mm 1 mps 759 mmHg 66%
    15:00 +22°C° 0 mm 1 mps 758 mmHg 67%
    16:00 +21°C° 0 mm 1 mps 758 mmHg 72%
    17:00 +19°C° 0 mm 1 mps 758 mmHg 78%
    18:00 +18°C° 0 mm 1 mps 758 mmHg 83%
    19:00 +16°C° 0 mm 1 mps 758 mmHg 84%
    20:00 +16°C° 0 mm 1 mps 758 mmHg 85%
    21:00 +16°C° 0 mm 1 mps 757 mmHg 85%
    22:00 +15°C° 0 mm 1 mps 757 mmHg 87%
    23:00 +15°C° 0 mm 1 mps 757 mmHg 88%

    Tomorrow, 18 October, Wednesday

    Time Temperature Precipitation Wind Pressure Humidity
    00:00 +15°C° 0 mm 1 mps 757 mmHg 89%
    01:00 +15°C° 0 mm 2 mps 756 mmHg 89%
    02:00 +14°C° 0 mm 2 mps 756 mmHg 90%
    03:00 +14°C° 0 mm 2 mps 755 mmHg 91%
    04:00 +13°C° 0 mm 2 mps 755 mmHg 90%
    05:00 +13°C° 0 mm 2 mps 755 mmHg 89%
    06:00 +12°C° 0 mm 2 mps 755 mmHg 88%
    07:00 +14°C° 0 mm 2 mps 755 mmHg 80%
    08:00 +15°C° 0 mm 2 mps 755 mmHg 73%
    09:00 +17°C° 0 mm 2 mps 755 mmHg 65%
    10:00 +18°C° 0 mm 3 mps 754 mmHg 63%
    11:00 +19°C° 0 mm 3 mps 754 mmHg 60%
    12:00 +21°C° 0 mm 3 mps 754 mmHg 57%
    13:00 +21°C° 0 mm 2 mps 754 mmHg 60%
    14:00 +21°C° 0 mm 2 mps 753 mmHg 63%
    15:00 +21°C° 0 mm 2 mps 753 mmHg 66%
    16:00 +19°C° 0 mm 2 mps 753 mmHg 72%
    17:00 +17°C° 0 mm 2 mps 753 mmHg 78%
    18:00 +16°C° 0 mm 2 mps 753 mmHg 84%
    19:00 +15°C° 0 mm 2 mps 754 mmHg 85%
    20:00 +15°C° 0 mm 2 mps 754 mmHg 85%
    21:00 +14°C° 0 mm 2 mps 754 mmHg 85%
    22:00 +14°C° 0 mm 2 mps 754 mmHg 85%
    23:00 +14°C° 0 mm 2 mps 753 mmHg 85%

    Day after tomorrow, 19 October, Thursday

    Time Temperature Precipitation Wind Pressure Humidity
    00:00 +14°C° 0 mm 2 mps 753 mmHg 84%
    01:00 +14°C° 0 mm 2 mps 753 mmHg 85%
    02:00 +13°C° 0 mm 2 mps 753 mmHg 87%
    03:00 +13°C° 0 mm 2 mps 753 mmHg 88%
    04:00 +13°C° 0 mm 2 mps 753 mmHg 88%
    05:00 +13°C° 0 mm 2 mps 752 mmHg 88%
    06:00 +12°C° 0 mm 3 mps 752 mmHg 88%
    07:00 +14°C° 0 mm 3 mps 752 mmHg 82%
    08:00 +15°C° 0 mm 4 mps 752 mmHg 76%
    09:00 +18°C° 0 mm 4 mps 752 mmHg 70%
    10:00 +19°C° 0 mm 4 mps 752 mmHg 67%
    11:00 +20°C° 0 mm 5 mps 752 mmHg 64%
    12:00 +21°C° 0 mm 5 mps 752 mmHg 61%
    13:00 +21°C° 0 mm 4 mps 752 mmHg 63%
    14:00 +21°C° 0 mm 4 mps 751 mmHg 65%
    15:00 +21°C° 0 mm 4 mps 751 mmHg 67%
    16:00 +20°C° 0 mm 4 mps 751 mmHg 70%
    17:00 +19°C° 0 mm 4 mps 751 mmHg 72%
    18:00 +18°C° 0 mm 4 mps 750 mmHg 75%
    19:00 +17°C° 0 mm 5 mps 750 mmHg 74%
    20:00 +17°C° 0 mm 5 mps 750 mmHg 72%
    21:00 +16°C° 0 mm 6 mps 750 mmHg 71%
    22:00 +16°C° 0.1 mm 6 mps 750 mmHg 74%
    23:00 +16°C° 0.1 mm 6 mps 750 mmHg 77%

    20 October, Friday

    Time Temperature Precipitation Wind Pressure Humidity
    00:00 +16°C° 0.1 mm 6 mps 750 mmHg 80%
    01:00 +16°C° 0.4 mm 6 mps 750 mmHg 81%
    02:00 +15°C° 0.4 mm 7 mps 750 mmHg 82%
    03:00 +15°C° 0.4 mm 7 mps 750 mmHg 83%
    04:00 +14°C° 0.1 mm 7 mps 750 mmHg 83%
    05:00 +14°C° 0.1 mm 7 mps 750 mmHg 83%
    06:00 +14°C° 0.1 mm 7 mps 751 mmHg 83%
    07:00 +14°C° 0.1 mm 7 mps 751 mmHg 80%
    08:00 +13°C° 0.1 mm 8 mps 752 mmHg 77%
    09:00 +15°C° 0.1 mm 8 mps 753 mmHg 73%
    10:00 +15°C° 0 mm 7 mps 753 mmHg 69%
    11:00 +16°C° 0 mm 7 mps 754 mmHg 65%
    12:00 +17°C° 0 mm 6 mps 754 mmHg 61%
    13:00 +16°C° 0 mm 6 mps 754 mmHg 64%
    14:00 +16°C° 0 mm 5 mps 754 mmHg 66%
    15:00 +17°C° 0 mm 4 mps 754 mmHg 69%
    16:00 +17°C° 0.1 mm 4 mps 754 mmHg 74%
    17:00 +16°C° 0.1 mm 3 mps 754 mmHg 79%
    18:00 +16°C° 0.1 mm 3 mps 754 mmHg 84%
    19:00 +16°C° 0.3 mm 3 mps 754 mmHg 85%
    20:00 +15°C° 0.3 mm 4 mps 753 mmHg 85%
    21:00 +17°C° 0.3 mm 4 mps 753 mmHg 86%
    22:00 +17°C° 0 mm 4 mps 753 mmHg 84%
    23:00 +16°C° 0 mm 5 mps 752 mmHg 82%

    21 October, Saturday

    Time Temperature Precipitation Wind Pressure Humidity
    00:00 +16°C° 0 mm 5 mps 752 mmHg 80%
    01:00 +16°C° 0.2 mm 6 mps 752 mmHg 81%
    02:00 +16°C° 0.2 mm 6 mps 751 mmHg 83%
    03:00 +16°C° 0.2 mm 6 mps 751 mmHg 85%
    04:00 +16°C° 1.2 mm 6 mps 751 mmHg 86%
    05:00 +16°C° 1.2 mm 6 mps 751 mmHg 88%
    06:00 +16°C° 1.2 mm 6 mps 751 mmHg 89%
    07:00 +16°C° 0.8 mm 6 mps 751 mmHg 89%
    08:00 +16°C° 0.8 mm 6 mps 751 mmHg 88%
    09:00 +16°C° 0.8 mm 5 mps 751 mmHg 87%
    10:00 +16°C° 0.4 mm 6 mps 752 mmHg 82%
    11:00 +16°C° 0.4 mm 6 mps 752 mmHg 77%
    12:00 +16°C° 0.4 mm 7 mps 752 mmHg 72%
    13:00 +15°C° 0 mm 7 mps 752 mmHg 69%
    14:00 +15°C° 0 mm 6 mps 752 mmHg 66%
    15:00 +15°C° 0 mm 6 mps 752 mmHg 63%
    16:00 +14°C° 0 mm 6 mps 752 mmHg 65%
    17:00 +13°C° 0 mm 6 mps 752 mmHg 66%
    18:00 +13°C° 0 mm 6 mps 752 mmHg 67%
    19:00 +11°C° 0 mm 6 mps 752 mmHg 67%
    20:00 +11°C° 0 mm 6 mps 752 mmHg 67%
    21:00 +11°C° 0 mm 6 mps 752 mmHg 68%
    22:00 +10°C° 0 mm 7 mps 752 mmHg 68%
    23:00 +10°C° 0 mm 7 mps 752 mmHg 68%

    22 October, Sunday

    Time Temperature Precipitation Wind Pressure Humidity
    00:00 +10°C° 0 mm 7 mps 753 mmHg 68%
    01:00 +9°C° 0 mm 7 mps 753 mmHg 70%
    02:00 +9°C° 0 mm 7 mps 752 mmHg 71%
    03:00 +9°C° 0 mm 7 mps 752 mmHg 73%
    04:00 +9°C° 0 mm 7 mps 753 mmHg 73%
    05:00 +9°C° 0 mm 7 mps 753 mmHg 74%
    06:00 +9°C° 0 mm 7 mps 753 mmHg 74%
    07:00 +9°C° 0 mm 8 mps 753 mmHg 73%
    08:00 +9°C° 0 mm 8 mps 753 mmHg 72%
    09:00 +10°C° 0 mm 8 mps 754 mmHg 70%
    10:00 +10°C° 0.1 mm 9 mps 754 mmHg 68%
    11:00 +11°C° 0.1 mm 9 mps 754 mmHg 67%
    12:00 +11°C° 0.1 mm 9 mps 754 mmHg 65%
    13:00 +11°C° 0.1 mm 9 mps 754 mmHg 65%
    14:00 +11°C° 0.1 mm 8 mps 754 mmHg 66%
    15:00 +11°C° 0.1 mm 8 mps 754 mmHg 67%
    16:00 +10°C° 0.3 mm 7 mps 754 mmHg 71%
    17:00 +10°C° 0.3 mm 7 mps 754 mmHg 76%
    18:00 +9°C° 0.3 mm 6 mps 754 mmHg 81%
    19:00 +9°C° 0.3 mm 6 mps 755 mmHg 81%
    20:00 +9°C° 0.3 mm 6 mps 755 mmHg 81%
    21:00 +9°C° 0.3 mm 6 mps 755 mmHg 82%
    22:00 +9°C° 0 mm 6 mps 756 mmHg 82%
    23:00 +9°C° 0 mm 6 mps 756 mmHg 83%
    Show more